Location: Nied?wied?
(53.3665°N, 14.8184°E)
Time: 23:34:11
(UTC+00:00)

ATLAS 5 CENTAUR R/B - Pass Details

Date: 03 March 2021
Orbit: 254 x 14192 km, 60.8° (Epoch: 12 April)

Event Time Altitude Azimuth Distance (km) Brightness Sun altitude
Rises 17:15:59 0° 232° (SW) 9,352 9.1 -5.8°
Reaches altitude 10° 17:24:45 10° 235° (SW) 6,191 8.1 -7.1°
Maximum altitude 17:37:51 82° 324° (NW) 985 3.1 -9.0°
Drops below altitude 10° 17:41:28 10° 53° (NE) 1,831 4.0 -9.5°
Enters shadow 17:41:47 - 53° (NE) 1,971 4.2 -9.6°
